Flag Island, MN

11:03 PM CDT on April 26, 2018 (GMT -0500)
Flag Island

Weather History for KFGN - January, 2012

Change the Weather History Date:

Monday, January 30, 2012

  Actual Average Record
Temperature  
Mean Temperature 16 °F -  
Max Temperature 23 °F 13 °F 35 °F (1999)
Min Temperature 10 °F 0 °F -31 °F (2004)
Degree Days  
Heating Degree Days 48    
Moisture  
Dew Point 12 °F    
Average Humidity 83    
Maximum Humidity 93    
Minimum Humidity 67    
Precipitation  
Precipitation 0.00 in - - ()
Sea Level Pressure  
Sea Level Pressure 29.65 in    
Wind  
Wind Speed 10 mph (ESE)    
Max Wind Speed 17 mph    
Max Gust Speed 16 mph    
Visibility 8 miles    
Events Snow    
Averages and records for this station are not official NWS values.
T = Trace of Precipitation, MM = Missing Value Source: NWS Daily Summary

Daily Weather History Graph

Daily Weather History Graph

Search for Another Location

Airport or City:

Astronomy

Jan. 30, 2012 Rise Set
Actual Time 7:54 AM CST 5:11 PM CST
Civil Twilight 7:19 AM CST 5:46 PM CST
Nautical Twilight 6:41 AM CST 6:25 PM CST
Astronomical Twilight 6:03 AM CST 7:02 PM CST
Moon 10:30 AM CST (1/30) 12:41 AM CST (1/30)
Length of Visible Light 10h 26m
Length of Day
9h 17m
Waxing Crescent, 46% of the Moon is Illuminated
Jan 30
Waxing Crescent
Jan 30
First Quarter
Feb 7
Full
Feb 14
Last Quarter
Feb 21
New

Hourly Weather History & Observations

Time (CST) Temp. Windchill Dew Point Humidity Pressure Visibility Wind Dir Wind Speed Gust Speed Precip Events Conditions
12:14 AM 10.4 °F -7.2 °F 1.4 °F 67% 29.83 in 10.0 mi SSE 17.3 mph - N/A   Overcast
12:34 AM 10.4 °F -6.6 °F 1.4 °F 67% 29.81 in 10.0 mi SSE 16.1 mph - N/A   Overcast
12:53 AM 10.4 °F -6.0 °F 1.4 °F 67% 29.80 in 10.0 mi SSE 15.0 mph - N/A   Overcast
1:13 AM 10.4 °F -5.4 °F 1.4 °F 67% 29.79 in 10.0 mi SE 13.8 mph - N/A   Overcast
1:34 AM 10.4 °F -1.5 °F 3.2 °F 73% 29.78 in 5.0 mi ESE 8.1 mph - N/A Snow Light Snow
1:53 AM 10.4 °F -1.5 °F 3.2 °F 73% 29.77 in 5.0 mi ESE 8.1 mph - N/A Snow Light Snow
2:13 AM 10.4 °F -4.1 °F 5.0 °F 79% 29.75 in 7.0 mi ESE 11.5 mph 16.1 mph N/A Snow Light Snow
2:33 AM 10.4 °F -2.4 °F 5.0 °F 79% 29.75 in 4.0 mi ESE 9.2 mph 16.1 mph N/A Snow Light Snow
2:54 AM 10.4 °F -3.3 °F 6.8 °F 85% 29.74 in 3.0 mi ESE 10.4 mph 16.1 mph N/A Snow Light Snow
3:33 AM 10.4 °F -2.4 °F 6.8 °F 85% 29.71 in 10.0 mi ESE 9.2 mph 16.1 mph N/A Snow Light Snow
3:53 AM 10.4 °F -2.4 °F 6.8 °F 85% 29.71 in 10.0 mi ESE 9.2 mph - N/A   Overcast
4:13 AM 10.4 °F -1.5 °F 6.8 °F 85% 29.70 in 10.0 mi ESE 8.1 mph - N/A   Overcast
4:34 AM 12.2 °F 0.7 °F 8.6 °F 85% 29.70 in 10.0 mi ESE 8.1 mph - N/A   Overcast
4:53 AM 12.2 °F 1.7 °F 8.6 °F 85% 29.70 in 5.0 mi ESE 6.9 mph - N/A   Overcast
5:14 AM 12.2 °F 0.7 °F 8.6 °F 85% 29.69 in 5.0 mi ESE 8.1 mph - N/A   Overcast
5:33 AM 12.2 °F -0.2 °F 8.6 °F 85% 29.68 in 4.0 mi ESE 9.2 mph - N/A   Overcast
5:53 AM 12.2 °F 0.7 °F 8.6 °F 85% 29.68 in 2.0 mi ESE 8.1 mph - N/A Snow Light Snow
6:14 AM 12.2 °F 2.9 °F 8.6 °F 85% 29.67 in 2.5 mi ESE 5.8 mph - N/A Snow Light Snow
6:33 AM 12.2 °F 2.9 °F 10.4 °F 92% 29.67 in 3.0 mi ESE 5.8 mph - N/A Snow Light Snow
6:53 AM 12.2 °F -0.2 °F 10.4 °F 92% 29.66 in 3.0 mi ESE 9.2 mph - N/A Snow Light Snow
7:14 AM 12.2 °F 2.9 °F 10.4 °F 92% 29.66 in 2.5 mi ESE 5.8 mph - N/A Snow Light Snow
7:33 AM 12.2 °F 1.7 °F 10.4 °F 92% 29.66 in 2.5 mi ESE 6.9 mph - N/A Snow Light Snow
8:13 AM 12.2 °F 1.7 °F 10.4 °F 92% 29.66 in 7.0 mi SE 6.9 mph - N/A   Overcast
8:33 AM 12.2 °F 1.7 °F 10.4 °F 92% 29.65 in 5.0 mi SE 6.9 mph - N/A   Overcast
8:54 AM 12.2 °F 1.7 °F 10.4 °F 92% 29.66 in 7.0 mi SE 6.9 mph - N/A   Overcast
9:33 AM 14.0 °F 1.2 °F 10.4 °F 86% 29.65 in 10.0 mi SE 10.4 mph - N/A   Overcast
9:53 AM 14.0 °F 1.2 °F 10.4 °F 86% 29.66 in 10.0 mi SE 10.4 mph - N/A   Overcast
10:11 AM 14.0 °F 3.9 °F 10.4 °F 86% 29.66 in 10.0 mi SE 6.9 mph - N/A   Overcast
11:14 AM 15.8 °F 6.1 °F 12.2 °F 86% 29.66 in 10.0 mi SE 6.9 mph - N/A   Overcast
11:33 AM 15.8 °F 6.1 °F 12.2 °F 86% 29.63 in 10.0 mi SE 6.9 mph - N/A   Overcast
11:53 AM 17.6 °F 8.2 °F 12.2 °F 79% 29.63 in 10.0 mi SE 6.9 mph - N/A   Overcast
12:14 PM 17.6 °F 7.3 °F 12.2 °F 79% 29.63 in 10.0 mi SE 8.1 mph - N/A   Overcast
1:13 PM 19.4 °F 12.8 °F 15.8 °F 86% 29.62 in 10.0 mi SE 4.6 mph - N/A   Overcast
1:33 PM 19.4 °F 12.8 °F 15.8 °F 86% 29.62 in 10.0 mi SE 4.6 mph - N/A   Overcast
2:13 PM 19.4 °F 11.5 °F 15.8 °F 86% 29.60 in 10.0 mi ESE 5.8 mph - N/A   Clear
2:54 PM 21.2 °F 13.6 °F 15.8 °F 80% 29.60 in 10.0 mi ESE 5.8 mph - N/A   Clear
3:13 PM 21.2 °F 13.6 °F 15.8 °F 80% 29.60 in 10.0 mi ESE 5.8 mph - N/A   Clear
3:33 PM 21.2 °F 13.6 °F 15.8 °F 80% 29.60 in 10.0 mi East 5.8 mph - N/A   Clear
3:53 PM 21.2 °F 13.6 °F 15.8 °F 80% 29.61 in 10.0 mi ESE 5.8 mph - N/A   Mostly Cloudy
4:13 PM 21.2 °F 16.4 °F 15.8 °F 80% 29.63 in 10.0 mi ESE 3.5 mph - N/A   Mostly Cloudy
4:34 PM 21.2 °F 14.9 °F 15.8 °F 80% 29.62 in 10.0 mi ESE 4.6 mph - N/A   Mostly Cloudy
4:54 PM 21.2 °F 16.4 °F 15.8 °F 80% 29.63 in 10.0 mi ESE 3.5 mph - N/A   Overcast
5:13 PM 21.2 °F 14.9 °F 15.8 °F 80% 29.62 in 10.0 mi East 4.6 mph - N/A   Overcast
5:34 PM 21.2 °F 14.9 °F 15.8 °F 80% 29.62 in 10.0 mi East 4.6 mph - N/A   Overcast
5:53 PM 21.2 °F 13.6 °F 15.8 °F 80% 29.62 in 10.0 mi East 5.8 mph - N/A   Mostly Cloudy
6:13 PM 21.2 °F 14.9 °F 15.8 °F 80% 29.62 in 10.0 mi East 4.6 mph - N/A   Mostly Cloudy
6:34 PM 21.2 °F 11.7 °F 15.8 °F 80% 29.62 in 10.0 mi ESE 8.1 mph - N/A   Overcast
7:13 PM 21.2 °F 11.7 °F 15.8 °F 80% 29.61 in 10.0 mi ESE 8.1 mph - N/A   Overcast
7:34 PM 21.2 °F 11.7 °F 15.8 °F 80% 29.60 in 10.0 mi ESE 8.1 mph - N/A   Overcast
7:53 PM 21.2 °F 10.9 °F 17.6 °F 86% 29.59 in 10.0 mi ESE 9.2 mph - N/A   Mostly Cloudy
8:13 PM 21.2 °F 12.6 °F 17.6 °F 86% 29.59 in 10.0 mi ESE 6.9 mph - N/A   Scattered Clouds
8:34 PM 21.2 °F 12.6 °F 17.6 °F 86% 29.59 in 10.0 mi ESE 6.9 mph - N/A   Scattered Clouds
9:13 PM 23.0 °F 15.8 °F 17.6 °F 80% 29.60 in 10.0 mi ESE 5.8 mph - N/A   Overcast
9:34 PM 23.0 °F 15.8 °F 17.6 °F 80% 29.60 in 10.0 mi SE 5.8 mph - N/A   Overcast
9:53 PM 23.0 °F 15.8 °F 17.6 °F 80% 29.59 in 10.0 mi SE 5.8 mph - N/A   Overcast
10:13 PM 23.0 °F 14.7 °F 17.6 °F 80% 29.58 in 5.0 mi ESE 6.9 mph - N/A Snow Light Snow
10:34 PM 23.0 °F 14.7 °F 19.4 °F 86% 29.57 in 2.5 mi ESE 6.9 mph - N/A Snow Light Snow
11:14 PM 23.0 °F 14.7 °F 19.4 °F 86% 29.57 in 1.8 mi SE 6.9 mph - N/A Snow Light Snow
11:20 PM 23.0 °F 15.8 °F 21.2 °F 93% 29.57 in 1.8 mi SE 5.8 mph - N/A Snow Light Snow
11:54 PM 23.0 °F 15.8 °F 21.2 °F 93% 29.57 in 1.8 mi SE 5.8 mph - N/A Snow Light Snow